Regional Weather Roundup
Issued by NWS Albany, NY

Home | Current Version | Previous Version | Text Only | Print | Product List | Glossary On
Versions: 1 2 3 4 5 6 7 8 9 10 11 12 13 14 15 16 17 18 19 20 21 22 23 24 25 26 27 28 29 30 31 32 33 34 35 36 37 38 39 40 41 42 43 44 45 46 47 48 49 50
000
ASUS41 KALY 120310
RWRALY

NEW YORK STATE HOURLY WEATHER ROUNDUP
NATIONAL WEATHER SERVICE ALBANY NY
1100 PM EDT FRI JUL 11 2014

NOTE: "FAIR" INDICATES FEW OR NO CLOUDS BELOW 12,000 FEET WITH NO
SIGNIFICANT WEATHER AND/OR NO OBSTRUCTIONS TO VISIBILITY.

NYZ032-033-038>043-046>054-057>066-NYZ062>081-120400-
EAST


CITY           SKY/WX    TMP DP  RH WIND       PRES   REMARKS
ALBANY         CLEAR     66  57  72 CALM      30.21S
GLENS FALLS    CLEAR     61  57  87 CALM      30.20S
POUGHKEEPSIE   PTCLDY    67  62  84 NE3       30.20R
NEWBURGH       CLEAR     70  63  78 CALM      30.23R
MONTGOMERY     CLEAR     65  62  90 S5        30.21R
WHITE PLAINS   CLEAR     67  62  84 CALM      30.22R
ISLIP          CLEAR     70  61  73 S3        30.20S
NEW YORK CITY  PTCLDY    72  62  71 S6        30.21R
CENTRAL PARK   CLEAR     72  61  68 CALM      30.24R
$$

NYZ005>009-017-018-044>046-055-056-120400-
CENTRAL


CITY           SKY/WX    TMP DP  RH WIND       PRES   REMARKS
FULTON         PTCLDY    61  55  81 CALM      30.20F
SYRACUSE       PTCLDY    67  57  70 CALM      30.21S
ROME           CLEAR     61  57  87 CALM      30.23R
ELMIRA         CLEAR     64  59  83 CALM      30.21R
BINGHAMTON     MOCLDY    70  56  61 E5        30.25R
$$

NYZ026>034-041>043-120400-
NORTH


CITY           SKY/WX    TMP DP  RH WIND       PRES   REMARKS
WATERTOWN      CLEAR     54  49  83 E5        30.20S
FORT DRUM      NOT AVBL
MASSENA        CLEAR     58  57  97 CALM      30.20R
SARANAC LAKE   CLEAR     51  49  92 CALM      30.24R
PLATTSBURGH    CLEAR     58  56  93 CALM      30.19S
$$

NYZ001>004-010>016-019>021-120400-
WEST


CITY           SKY/WX    TMP DP  RH WIND       PRES   REMARKS
NIAGARA FALLS  PTCLDY    65  55  70 E5        30.19S
BUFFALO        MOCLDY    68  56  65 E5        30.20S
DUNKIRK        CLEAR     63  56  78 CALM      30.20S
JAMESTOWN      CLEAR     64  52  63 CALM      30.24S
WELLSVILLE     MOCLDY    66  59  78 N3        30.27R
ROCHESTER      MOCLDY    68  52  56 NE5       30.20F
PENN YAN       PTCLDY    65  58  78 CALM      30.22S
$$

             KEY
       WCI = WIND CHILL INDEX
       VSB = VISIBILITY
       HX  = HEAT INDEX
$$



USA.gov is the U.S. government's official web portal to all federal, state and local government web resources and services.